Year,Month,Day,Hour,Minute,Value (Times are PST for temperature in C)
2012,09,27,00,00,6.40
2012,09,27,00,01,6.40
2012,09,27,00,02,6.50
2012,09,27,00,03,6.60
2012,09,27,00,04,6.60
2012,09,27,00,05,6.60
2012,09,27,00,06,6.60
2012,09,27,00,07,6.60
2012,09,27,00,08,6.60
2012,09,27,00,09,6.60
2012,09,27,00,10,6.60
2012,09,27,00,11,6.60
2012,09,27,00,12,6.60
2012,09,27,00,13,6.50
2012,09,27,00,14,6.40
2012,09,27,00,15,6.40
2012,09,27,00,16,6.30
2012,09,27,00,17,6.30
2012,09,27,00,18,6.20
2012,09,27,00,19,6.20
2012,09,27,00,20,6.20
2012,09,27,00,21,6.20
2012,09,27,00,22,6.20
2012,09,27,00,23,6.20
2012,09,27,00,24,6.20
2012,09,27,00,25,6.10
2012,09,27,00,26,6.10
2012,09,27,00,27,6.10
2012,09,27,00,28,6.10
2012,09,27,00,29,6.10
2012,09,27,00,30,6.10
2012,09,27,00,31,6.10
2012,09,27,00,32,6.10
2012,09,27,00,33,6.00
2012,09,27,00,34,6.00
2012,09,27,00,35,6.00
2012,09,27,00,36,6.00
2012,09,27,00,37,6.00
2012,09,27,00,38,6.00
2012,09,27,00,39,6.00
2012,09,27,00,40,5.90
2012,09,27,00,41,5.90
2012,09,27,00,42,6.00
2012,09,27,00,43,6.00
2012,09,27,00,44,6.00
2012,09,27,00,45,6.00
2012,09,27,00,46,6.00
2012,09,27,00,47,6.10
2012,09,27,00,48,6.10
2012,09,27,00,49,6.10
2012,09,27,00,50,6.10
2012,09,27,00,51,6.20
2012,09,27,00,52,6.10
2012,09,27,00,53,6.10
2012,09,27,00,54,6.10
2012,09,27,00,55,6.10
2012,09,27,00,56,6.10
2012,09,27,00,57,6.10
2012,09,27,00,58,6.10
2012,09,27,00,59,6.10
2012,09,27,01,00,6.10
2012,09,27,01,01,6.10
2012,09,27,01,02,6.20
2012,09,27,01,03,6.20
2012,09,27,01,04,6.20
2012,09,27,01,05,6.20
2012,09,27,01,06,6.20
2012,09,27,01,07,6.20
2012,09,27,01,08,6.20
2012,09,27,01,09,6.20
2012,09,27,01,10,6.20
2012,09,27,01,11,6.20
2012,09,27,01,12,6.20
2012,09,27,01,13,6.20
2012,09,27,01,14,6.10
2012,09,27,01,15,6.10
2012,09,27,01,16,6.10
2012,09,27,01,17,6.10
2012,09,27,01,18,6.10
2012,09,27,01,19,6.10
2012,09,27,01,20,6.10
2012,09,27,01,21,6.10
2012,09,27,01,22,6.10
2012,09,27,01,23,6.10
2012,09,27,01,24,6.10
2012,09,27,01,25,6.20
2012,09,27,01,26,6.20
2012,09,27,01,27,6.20
2012,09,27,01,28,6.20
2012,09,27,01,29,6.20
2012,09,27,01,30,6.20
2012,09,27,01,31,6.20
2012,09,27,01,32,6.20
2012,09,27,01,33,6.20
2012,09,27,01,34,6.10
2012,09,27,01,35,6.10
2012,09,27,01,36,6.10
2012,09,27,01,37,6.10
2012,09,27,01,38,6.10
2012,09,27,01,39,6.20
2012,09,27,01,40,6.20
2012,09,27,01,41,6.10
2012,09,27,01,42,6.10
2012,09,27,01,43,6.10
2012,09,27,01,44,6.10
2012,09,27,01,45,6.10
2012,09,27,01,46,6.10
2012,09,27,01,47,6.10
2012,09,27,01,48,6.00
2012,09,27,01,49,6.00
2012,09,27,01,50,6.00
2012,09,27,01,51,6.00
2012,09,27,01,52,6.00
2012,09,27,01,53,6.00
2012,09,27,01,54,6.00
2012,09,27,01,55,6.00
2012,09,27,01,56,6.00
2012,09,27,01,57,6.00
2012,09,27,01,58,6.10
2012,09,27,01,59,6.10
2012,09,27,02,00,6.10
2012,09,27,02,01,6.20
2012,09,27,02,02,6.20
2012,09,27,02,03,6.20
2012,09,27,02,04,6.20
2012,09,27,02,05,6.30
2012,09,27,02,06,6.30
2012,09,27,02,07,6.20
2012,09,27,02,08,6.20
2012,09,27,02,09,6.20
2012,09,27,02,10,6.20
2012,09,27,02,11,6.20
2012,09,27,02,12,6.30
2012,09,27,02,13,6.30
2012,09,27,02,14,6.30
2012,09,27,02,15,6.30
2012,09,27,02,16,6.40
2012,09,27,02,17,6.40
2012,09,27,02,18,6.40
2012,09,27,02,19,6.40
2012,09,27,02,20,6.40
2012,09,27,02,21,6.40
2012,09,27,02,22,6.40
2012,09,27,02,23,6.40
2012,09,27,02,24,6.40
2012,09,27,02,25,6.40
2012,09,27,02,26,6.50
2012,09,27,02,27,6.60
2012,09,27,02,28,6.60
2012,09,27,02,29,6.60
2012,09,27,02,30,6.60
2012,09,27,02,31,6.60
2012,09,27,02,32,6.60
2012,09,27,02,33,6.60
2012,09,27,02,34,6.60
2012,09,27,02,35,6.60
2012,09,27,02,36,6.60
2012,09,27,02,37,6.70
2012,09,27,02,38,6.70
2012,09,27,02,39,6.80
2012,09,27,02,40,6.80
2012,09,27,02,41,6.90
2012,09,27,02,42,6.90
2012,09,27,02,43,6.90
2012,09,27,02,44,6.90
2012,09,27,02,45,6.80
2012,09,27,02,46,6.80
2012,09,27,02,47,6.80
2012,09,27,02,48,6.80
2012,09,27,02,49,6.70
2012,09,27,02,50,6.70
2012,09,27,02,51,6.60
2012,09,27,02,52,6.60
2012,09,27,02,53,6.60
2012,09,27,02,54,6.60
2012,09,27,02,55,6.60
2012,09,27,02,56,6.60
2012,09,27,02,57,6.60
2012,09,27,02,58,6.60
2012,09,27,02,59,6.50
2012,09,27,03,00,6.40
2012,09,27,03,01,6.40
2012,09,27,03,02,6.40
2012,09,27,03,03,6.40
2012,09,27,03,04,6.40
2012,09,27,03,05,6.40
2012,09,27,03,06,6.40
2012,09,27,03,07,6.40
2012,09,27,03,08,6.40
2012,09,27,03,09,6.50
2012,09,27,03,10,6.60
2012,09,27,03,11,6.60
2012,09,27,03,12,6.60
2012,09,27,03,13,6.60
2012,09,27,03,14,6.60
2012,09,27,03,15,6.60
2012,09,27,03,16,6.70
2012,09,27,03,17,6.80
2012,09,27,03,18,6.80
2012,09,27,03,19,6.80
2012,09,27,03,20,6.80
2012,09,27,03,21,6.80
2012,09,27,03,22,6.80
2012,09,27,03,23,6.80
2012,09,27,03,24,6.80
2012,09,27,03,25,6.80
2012,09,27,03,26,6.80
2012,09,27,03,27,6.70
2012,09,27,03,28,6.70
2012,09,27,03,29,6.70
2012,09,27,03,30,6.70
2012,09,27,03,31,6.60
2012,09,27,03,32,6.60
2012,09,27,03,33,6.60
2012,09,27,03,34,6.60
2012,09,27,03,35,6.60
2012,09,27,03,36,6.60
2012,09,27,03,37,6.60
2012,09,27,03,38,6.60
2012,09,27,03,39,6.60
2012,09,27,03,40,6.60
2012,09,27,03,41,6.60
2012,09,27,03,42,6.50
2012,09,27,03,43,6.40
2012,09,27,03,44,6.40
2012,09,27,03,45,6.40
2012,09,27,03,46,6.40
2012,09,27,03,47,6.40
2012,09,27,03,48,6.50
2012,09,27,03,49,6.60
2012,09,27,03,50,6.70
2012,09,27,03,51,6.70
2012,09,27,03,52,6.70
2012,09,27,03,53,6.70
2012,09,27,03,54,6.80
2012,09,27,03,55,6.80
2012,09,27,03,56,6.80
2012,09,27,03,57,6.80
2012,09,27,03,58,6.80
2012,09,27,03,59,6.80
2012,09,27,04,00,6.80
2012,09,27,04,01,6.80
2012,09,27,04,02,6.80
2012,09,27,04,03,6.90
2012,09,27,04,04,6.90
2012,09,27,04,05,7.00
2012,09,27,04,06,7.00
2012,09,27,04,07,7.00
2012,09,27,04,08,7.00
2012,09,27,04,09,7.00
2012,09,27,04,10,7.00
2012,09,27,04,11,7.00
2012,09,27,04,12,6.90
2012,09,27,04,13,6.90
2012,09,27,04,14,6.80
2012,09,27,04,15,6.80
2012,09,27,04,16,6.80
2012,09,27,04,17,6.80
2012,09,27,04,18,6.80
2012,09,27,04,19,6.80
2012,09,27,04,20,6.80
2012,09,27,04,21,6.70
2012,09,27,04,22,6.70
2012,09,27,04,23,6.70
2012,09,27,04,24,6.70
2012,09,27,04,25,6.70
2012,09,27,04,26,6.70
2012,09,27,04,27,6.70
2012,09,27,04,28,6.70
2012,09,27,04,29,6.60
2012,09,27,04,30,6.60
2012,09,27,04,31,6.60
2012,09,27,04,32,6.60
2012,09,27,04,33,6.60
2012,09,27,04,34,6.60
2012,09,27,04,35,6.60
2012,09,27,04,36,6.60
2012,09,27,04,37,6.60
2012,09,27,04,38,6.60
2012,09,27,04,39,6.60
2012,09,27,04,40,6.60
2012,09,27,04,41,6.60
2012,09,27,04,42,6.60
2012,09,27,04,43,6.60
2012,09,27,04,44,6.70
2012,09,27,04,45,6.80
2012,09,27,04,46,6.80
2012,09,27,04,47,6.80
2012,09,27,04,48,6.80
2012,09,27,04,49,6.80
2012,09,27,04,50,6.80
2012,09,27,04,51,6.80
2012,09,27,04,52,6.80
2012,09,27,04,53,6.80
2012,09,27,04,54,6.80
2012,09,27,04,55,6.80
2012,09,27,04,56,6.80
2012,09,27,04,57,6.80
2012,09,27,04,58,6.80
2012,09,27,04,59,6.80
2012,09,27,05,00,6.80
2012,09,27,05,01,6.90
2012,09,27,05,02,6.90
2012,09,27,05,03,6.90
2012,09,27,05,04,6.90
2012,09,27,05,05,6.90
2012,09,27,05,06,6.90
2012,09,27,05,07,6.90
2012,09,27,05,08,6.90
2012,09,27,05,09,6.90
2012,09,27,05,10,6.80
2012,09,27,05,11,6.80
2012,09,27,05,12,6.80
2012,09,27,05,13,6.80
2012,09,27,05,14,6.70
2012,09,27,05,15,6.70
2012,09,27,05,16,6.70
2012,09,27,05,17,6.60
2012,09,27,05,18,6.60
2012,09,27,05,19,6.60
2012,09,27,05,20,6.60
2012,09,27,05,21,6.60
2012,09,27,05,22,6.60
2012,09,27,05,23,6.60
2012,09,27,05,24,6.70
2012,09,27,05,25,6.70
2012,09,27,05,26,6.70
2012,09,27,05,27,6.80
2012,09,27,05,28,6.80
2012,09,27,05,29,6.80
2012,09,27,05,30,6.80
2012,09,27,05,31,6.80
2012,09,27,05,32,6.80
2012,09,27,05,33,6.80
2012,09,27,05,34,6.80
2012,09,27,05,35,6.80
2012,09,27,05,36,6.80
2012,09,27,05,37,6.80
2012,09,27,05,38,6.80
2012,09,27,05,39,6.80
2012,09,27,05,40,6.80
2012,09,27,05,41,6.80
2012,09,27,05,42,6.80
2012,09,27,05,43,6.80
2012,09,27,05,44,6.80
2012,09,27,05,45,6.80
2012,09,27,05,46,6.80
2012,09,27,05,47,6.80
2012,09,27,05,48,6.80
2012,09,27,05,49,6.80
2012,09,27,05,50,6.80
2012,09,27,05,51,6.80
2012,09,27,05,52,6.80
2012,09,27,05,53,6.70
2012,09,27,05,54,6.70
2012,09,27,05,55,6.70
2012,09,27,05,56,6.60
2012,09,27,05,57,6.60
2012,09,27,05,58,6.60
2012,09,27,05,59,6.60
2012,09,27,06,00,6.60
2012,09,27,06,01,6.60
2012,09,27,06,02,6.60
2012,09,27,06,03,6.60
2012,09,27,06,04,6.60
2012,09,27,06,05,6.60
2012,09,27,06,06,6.60
2012,09,27,06,07,6.60
2012,09,27,06,08,6.60
2012,09,27,06,09,6.60
2012,09,27,06,10,6.60
2012,09,27,06,11,6.60
2012,09,27,06,12,6.70
2012,09,27,06,13,6.70
2012,09,27,06,14,6.70
2012,09,27,06,15,6.70
2012,09,27,06,16,6.70
2012,09,27,06,17,6.70
2012,09,27,06,18,6.80
2012,09,27,06,19,6.80
2012,09,27,06,20,6.80
2012,09,27,06,21,6.80
2012,09,27,06,22,6.80
2012,09,27,06,23,6.80
2012,09,27,06,24,6.80
2012,09,27,06,25,6.80
2012,09,27,06,26,6.80
2012,09,27,06,27,6.80
2012,09,27,06,28,6.80
2012,09,27,06,29,6.90
2012,09,27,06,30,6.90
2012,09,27,06,31,7.00
2012,09,27,06,32,7.00
2012,09,27,06,33,7.00
2012,09,27,06,34,7.00
2012,09,27,06,35,7.00
2012,09,27,06,36,7.00
2012,09,27,06,37,7.00
2012,09,27,06,38,7.00
2012,09,27,06,39,7.00
2012,09,27,06,40,7.00
2012,09,27,06,41,7.00
2012,09,27,06,42,7.00
2012,09,27,06,43,7.00
2012,09,27,06,44,7.00
2012,09,27,06,45,7.00
2012,09,27,06,46,7.00
2012,09,27,06,47,7.00
2012,09,27,06,48,6.90
2012,09,27,06,49,6.90
2012,09,27,06,50,6.90
2012,09,27,06,51,6.90
2012,09,27,06,52,6.80
2012,09,27,06,53,6.80
2012,09,27,06,54,6.80
2012,09,27,06,55,6.80
2012,09,27,06,56,6.80
2012,09,27,06,57,6.80
2012,09,27,06,58,6.80
2012,09,27,06,59,6.70
2012,09,27,07,00,6.70
2012,09,27,07,01,6.70
2012,09,27,07,02,6.60
2012,09,27,07,03,6.60
2012,09,27,07,04,6.60
2012,09,27,07,05,6.60
2012,09,27,07,06,6.60
2012,09,27,07,07,6.60
2012,09,27,07,08,6.60
2012,09,27,07,09,6.60
2012,09,27,07,10,6.60
2012,09,27,07,11,6.60
2012,09,27,07,12,6.60
2012,09,27,07,13,6.70
2012,09,27,07,14,6.70
2012,09,27,07,15,6.80
2012,09,27,07,16,6.80
2012,09,27,07,17,6.80
2012,09,27,07,18,6.90
2012,09,27,07,19,6.90
2012,09,27,07,20,7.00
2012,09,27,07,21,7.10
2012,09,27,07,22,7.30
2012,09,27,07,23,7.30
2012,09,27,07,24,7.40
2012,09,27,07,25,7.30
2012,09,27,07,26,7.30
2012,09,27,07,27,7.10
2012,09,27,07,28,7.00
2012,09,27,07,29,6.90
2012,09,27,07,30,6.90
2012,09,27,07,31,6.80
2012,09,27,07,32,6.80
2012,09,27,07,33,6.80
2012,09,27,07,34,6.90
2012,09,27,07,35,6.90
2012,09,27,07,36,7.00
2012,09,27,07,37,7.00
2012,09,27,07,38,7.10
2012,09,27,07,39,7.20
2012,09,27,07,40,7.30
2012,09,27,07,41,7.50
2012,09,27,07,42,7.60
2012,09,27,07,43,7.70
2012,09,27,07,44,7.80
2012,09,27,07,45,7.80
2012,09,27,07,46,7.80
2012,09,27,07,47,7.80
2012,09,27,07,48,7.80
2012,09,27,07,49,7.80
2012,09,27,07,50,7.80
2012,09,27,07,51,7.90
2012,09,27,07,52,7.90
2012,09,27,07,53,7.90
2012,09,27,07,54,7.90
2012,09,27,07,55,7.90
2012,09,27,07,56,7.90
2012,09,27,07,57,7.90
2012,09,27,07,58,7.90
2012,09,27,07,59,7.90
2012,09,27,08,00,7.90
2012,09,27,08,01,7.90
2012,09,27,08,02,7.90
2012,09,27,08,03,7.90
2012,09,27,08,04,7.90
2012,09,27,08,05,7.90
2012,09,27,08,06,8.00
2012,09,27,08,07,8.10
2012,09,27,08,08,8.10
2012,09,27,08,09,8.10
2012,09,27,08,10,8.20
2012,09,27,08,11,8.30
2012,09,27,08,12,8.40
2012,09,27,08,13,8.50
2012,09,27,08,14,8.70
2012,09,27,08,15,8.70
2012,09,27,08,16,8.70
2012,09,27,08,17,8.70
2012,09,27,08,18,8.70
2012,09,27,08,19,8.90
2012,09,27,08,20,9.00
2012,09,27,08,21,9.00
2012,09,27,08,22,9.00
2012,09,27,08,23,9.00
2012,09,27,08,24,9.00
2012,09,27,08,25,9.00
2012,09,27,08,26,9.00
2012,09,27,08,27,9.00
2012,09,27,08,28,9.00
2012,09,27,08,29,9.10
2012,09,27,08,30,9.20
2012,09,27,08,31,9.30
2012,09,27,08,32,9.50
2012,09,27,08,33,9.60
2012,09,27,08,34,9.70
2012,09,27,08,35,9.70
2012,09,27,08,36,9.80
2012,09,27,08,37,9.90
2012,09,27,08,38,9.90
2012,09,27,08,39,10.00
2012,09,27,08,40,10.10
2012,09,27,08,41,10.10
2012,09,27,08,42,10.10
2012,09,27,08,43,10.20
2012,09,27,08,44,10.20
2012,09,27,08,45,10.20
2012,09,27,08,46,10.30
2012,09,27,08,47,10.30
2012,09,27,08,48,10.40
2012,09,27,08,49,10.40
2012,09,27,08,50,10.40
2012,09,27,08,51,10.40
2012,09,27,08,52,10.40
2012,09,27,08,53,10.40
2012,09,27,08,54,10.40
2012,09,27,08,55,10.50
2012,09,27,08,56,10.60
2012,09,27,08,57,10.60
2012,09,27,08,58,10.60
2012,09,27,08,59,10.60
2012,09,27,09,00,10.70
2012,09,27,09,01,10.70
2012,09,27,09,02,10.80
2012,09,27,09,03,10.90
2012,09,27,09,04,11.00
2012,09,27,09,05,11.10
2012,09,27,09,06,11.20
2012,09,27,09,07,11.20
2012,09,27,09,08,11.30
2012,09,27,09,09,11.50
2012,09,27,09,10,11.60
2012,09,27,09,11,11.70
2012,09,27,09,12,11.80
2012,09,27,09,13,11.80
2012,09,27,09,14,11.80
2012,09,27,09,15,11.90
2012,09,27,09,16,11.90
2012,09,27,09,17,11.90
2012,09,27,09,18,12.00
2012,09,27,09,19,12.10
2012,09,27,09,20,12.10
2012,09,27,09,21,12.20
2012,09,27,09,22,12.20
2012,09,27,09,23,12.20
2012,09,27,09,24,12.30
2012,09,27,09,25,12.30
2012,09,27,09,26,12.30
2012,09,27,09,27,12.30
2012,09,27,09,28,12.40
2012,09,27,09,29,12.50
2012,09,27,09,30,12.60
2012,09,27,09,31,12.70
2012,09,27,09,32,12.80
2012,09,27,09,33,12.90
2012,09,27,09,34,12.80
2012,09,27,09,35,12.70
2012,09,27,09,36,12.60
2012,09,27,09,37,12.60
2012,09,27,09,38,12.50
2012,09,27,09,39,12.40
2012,09,27,09,40,12.40
2012,09,27,09,41,12.40
2012,09,27,09,42,12.30
2012,09,27,09,43,12.30
2012,09,27,09,44,12.20
2012,09,27,09,45,12.20
2012,09,27,09,46,12.20
2012,09,27,09,47,12.10
2012,09,27,09,48,12.00
2012,09,27,09,49,12.00
2012,09,27,09,50,11.90
2012,09,27,09,51,11.90
2012,09,27,09,52,11.90
2012,09,27,09,53,11.90
2012,09,27,09,54,11.90
2012,09,27,09,55,11.90
2012,09,27,09,56,12.00
2012,09,27,09,57,12.00
2012,09,27,09,58,12.10
2012,09,27,09,59,12.20
2012,09,27,10,00,12.10
2012,09,27,10,01,12.10
2012,09,27,10,02,12.20
2012,09,27,10,03,12.20
2012,09,27,10,04,12.20
2012,09,27,10,05,12.30
2012,09,27,10,06,12.30
2012,09,27,10,07,12.30
2012,09,27,10,08,12.40
2012,09,27,10,09,12.50
2012,09,27,10,10,12.50
2012,09,27,10,11,12.60
2012,09,27,10,12,12.70
2012,09,27,10,13,12.80
2012,09,27,10,14,12.80
2012,09,27,10,15,12.80
2012,09,27,10,16,12.80
2012,09,27,10,17,12.80
2012,09,27,10,18,12.90
2012,09,27,10,19,12.90
2012,09,27,10,20,12.90
2012,09,27,10,21,13.00
2012,09,27,10,22,13.00
2012,09,27,10,23,13.00
2012,09,27,10,24,13.00
2012,09,27,10,25,13.00
2012,09,27,10,26,12.90
2012,09,27,10,27,12.90
2012,09,27,10,28,12.90
2012,09,27,10,29,12.80
2012,09,27,10,30,12.80
2012,09,27,10,31,12.80
2012,09,27,10,32,12.80
2012,09,27,10,33,12.80
2012,09,27,10,34,12.80
2012,09,27,10,35,12.80
2012,09,27,10,36,12.80
2012,09,27,10,37,12.80
2012,09,27,10,38,12.80
2012,09,27,10,39,12.80
2012,09,27,10,40,12.80
2012,09,27,10,41,12.80
2012,09,27,10,42,12.80
2012,09,27,10,43,12.80
2012,09,27,10,44,12.80
2012,09,27,10,45,12.80
2012,09,27,10,46,12.80
2012,09,27,10,47,12.80
2012,09,27,10,48,12.80
2012,09,27,10,49,12.80
2012,09,27,10,50,12.80
2012,09,27,10,51,12.90
2012,09,27,10,52,12.90
2012,09,27,10,53,13.00
2012,09,27,10,54,13.00
2012,09,27,10,55,13.10
2012,09,27,10,56,13.10
2012,09,27,10,57,13.10
2012,09,27,10,58,13.10
2012,09,27,10,59,13.10
2012,09,27,11,00,13.10
2012,09,27,11,01,13.10
2012,09,27,11,02,13.20
2012,09,27,11,03,13.20
2012,09,27,11,04,13.20
2012,09,27,11,05,13.20
2012,09,27,11,06,13.10
2012,09,27,11,07,13.10
2012,09,27,11,08,13.00
2012,09,27,11,09,13.10
2012,09,27,11,10,13.10
2012,09,27,11,11,13.10
2012,09,27,11,12,13.10
2012,09,27,11,13,13.10
2012,09,27,11,14,13.10
2012,09,27,11,15,13.10
2012,09,27,11,16,13.10
2012,09,27,11,17,13.20
2012,09,27,11,18,13.20
2012,09,27,11,19,13.30
2012,09,27,11,20,13.20
2012,09,27,11,21,13.30
2012,09,27,11,22,13.30
2012,09,27,11,23,13.30
2012,09,27,11,24,13.40
2012,09,27,11,25,13.50
2012,09,27,11,26,13.60
2012,09,27,11,27,13.70
2012,09,27,11,28,13.80
2012,09,27,11,29,14.00
2012,09,27,11,30,14.10
2012,09,27,11,31,14.20
2012,09,27,11,32,14.40
2012,09,27,11,33,14.60
2012,09,27,11,34,14.70
2012,09,27,11,35,14.70
2012,09,27,11,36,14.70
2012,09,27,11,37,14.80
2012,09,27,11,38,14.80
2012,09,27,11,39,14.90
2012,09,27,11,40,15.00
2012,09,27,11,41,15.10
2012,09,27,11,42,15.20
2012,09,27,11,43,15.30
2012,09,27,11,44,15.30
2012,09,27,11,45,15.30
2012,09,27,11,46,15.30
2012,09,27,11,47,15.30
2012,09,27,11,48,15.40
2012,09,27,11,49,15.40
2012,09,27,11,50,15.40
2012,09,27,11,51,15.30
2012,09,27,11,52,15.30
2012,09,27,11,53,15.10
2012,09,27,11,54,15.10
2012,09,27,11,55,15.00
2012,09,27,11,56,15.00
2012,09,27,11,57,15.00
2012,09,27,11,58,14.90
2012,09,27,11,59,15.00
2012,09,27,12,00,14.90
2012,09,27,12,01,14.90
2012,09,27,12,02,14.90
2012,09,27,12,03,14.90
2012,09,27,12,04,15.00
2012,09,27,12,05,15.10
2012,09,27,12,06,15.10
2012,09,27,12,07,15.20
2012,09,27,12,08,15.20
2012,09,27,12,09,15.20
2012,09,27,12,10,15.20
2012,09,27,12,11,15.30
2012,09,27,12,12,15.30
2012,09,27,12,13,15.20
2012,09,27,12,14,15.10
2012,09,27,12,15,15.00
2012,09,27,12,16,15.00
2012,09,27,12,17,15.00
2012,09,27,12,18,14.90
2012,09,27,12,19,14.80
2012,09,27,12,20,14.70
2012,09,27,12,21,14.60
2012,09,27,12,22,14.50
2012,09,27,12,23,14.40
2012,09,27,12,24,14.30
2012,09,27,12,25,14.20
2012,09,27,12,26,14.20
2012,09,27,12,27,14.20
2012,09,27,12,28,14.20
2012,09,27,12,29,14.10
2012,09,27,12,30,14.10
2012,09,27,12,31,14.00
2012,09,27,12,32,14.00
2012,09,27,12,33,14.00
2012,09,27,12,34,14.10
2012,09,27,12,35,14.10
2012,09,27,12,36,14.00
2012,09,27,12,37,14.00
2012,09,27,12,38,14.00
2012,09,27,12,39,14.00
2012,09,27,12,40,13.90
2012,09,27,12,41,13.90
2012,09,27,12,42,13.90
2012,09,27,12,43,14.00
2012,09,27,12,44,14.00
2012,09,27,12,45,14.00
2012,09,27,12,46,14.00
2012,09,27,12,47,13.90
2012,09,27,12,48,13.80
2012,09,27,12,49,13.70
2012,09,27,12,50,13.70
2012,09,27,12,51,13.70
2012,09,27,12,52,13.70
2012,09,27,12,53,13.60
2012,09,27,12,54,13.60
2012,09,27,12,55,13.60
2012,09,27,12,56,13.60
2012,09,27,12,57,13.70
2012,09,27,12,58,13.80
2012,09,27,12,59,13.90
2012,09,27,13,00,13.90
2012,09,27,13,01,14.00
2012,09,27,13,02,14.00
2012,09,27,13,03,14.10
2012,09,27,13,04,14.20
2012,09,27,13,05,14.30
2012,09,27,13,06,14.30
2012,09,27,13,07,14.40
2012,09,27,13,08,14.40
2012,09,27,13,09,14.50
2012,09,27,13,10,14.50
2012,09,27,13,11,14.50
2012,09,27,13,12,14.50
2012,09,27,13,13,14.50
2012,09,27,13,14,14.50
2012,09,27,13,15,14.50
2012,09,27,13,16,14.50
2012,09,27,13,17,14.60
2012,09,27,13,18,14.60
2012,09,27,13,19,14.60
2012,09,27,13,20,14.60
2012,09,27,13,21,14.70
2012,09,27,13,22,14.80
2012,09,27,13,23,14.80
2012,09,27,13,24,14.80
2012,09,27,13,25,14.80
2012,09,27,13,26,14.90
2012,09,27,13,27,15.00
2012,09,27,13,28,15.00
2012,09,27,13,29,15.00
2012,09,27,13,30,15.00
2012,09,27,13,31,15.00
2012,09,27,13,32,15.00
2012,09,27,13,33,15.00
2012,09,27,13,34,15.00
2012,09,27,13,35,15.10
2012,09,27,13,36,15.10
2012,09,27,13,37,15.10
2012,09,27,13,38,15.10
2012,09,27,13,39,15.10
2012,09,27,13,40,15.20
2012,09,27,13,41,15.30
2012,09,27,13,42,15.30
2012,09,27,13,43,15.30
2012,09,27,13,44,15.40
2012,09,27,13,45,15.30
2012,09,27,13,46,15.40
2012,09,27,13,47,15.50
2012,09,27,13,48,15.50
2012,09,27,13,49,15.50
2012,09,27,13,50,15.60
2012,09,27,13,51,15.60
2012,09,27,13,52,15.60
2012,09,27,13,53,15.60
2012,09,27,13,54,15.60
2012,09,27,13,55,15.60
2012,09,27,13,56,15.70
2012,09,27,13,57,15.70
2012,09,27,13,58,15.80
2012,09,27,13,59,15.80
2012,09,27,14,00,15.80
2012,09,27,14,01,15.90
2012,09,27,14,02,15.90
2012,09,27,14,03,15.90
2012,09,27,14,04,16.00
2012,09,27,14,05,16.10
2012,09,27,14,06,16.20
2012,09,27,14,07,16.20
2012,09,27,14,08,16.20
2012,09,27,14,09,16.20
2012,09,27,14,10,16.20
2012,09,27,14,11,16.20
2012,09,27,14,12,16.20
2012,09,27,14,13,16.30
2012,09,27,14,14,16.40
2012,09,27,14,15,16.40
2012,09,27,14,16,16.40
2012,09,27,14,17,16.60
2012,09,27,14,18,16.60
2012,09,27,14,19,16.70
2012,09,27,14,20,16.70
2012,09,27,14,21,16.80
2012,09,27,14,22,16.70
2012,09,27,14,23,16.70
2012,09,27,14,24,16.70
2012,09,27,14,25,16.70
2012,09,27,14,26,16.60
2012,09,27,14,27,16.60
2012,09,27,14,28,16.60
2012,09,27,14,29,16.50
2012,09,27,14,30,16.40
2012,09,27,14,31,16.40
2012,09,27,14,32,16.40
2012,09,27,14,33,16.50
2012,09,27,14,34,16.60
2012,09,27,14,35,16.60
2012,09,27,14,36,16.60
2012,09,27,14,37,16.70
2012,09,27,14,38,16.70
2012,09,27,14,39,16.60
2012,09,27,14,40,16.50
2012,09,27,14,41,16.40
2012,09,27,14,42,16.40
2012,09,27,14,43,16.40
2012,09,27,14,44,16.40
2012,09,27,14,45,16.40
2012,09,27,14,46,16.40
2012,09,27,14,47,16.30
2012,09,27,14,48,16.30
2012,09,27,14,49,16.30
2012,09,27,14,50,16.40
2012,09,27,14,51,16.40
2012,09,27,14,52,16.40
2012,09,27,14,53,16.50
2012,09,27,14,54,16.60
2012,09,27,14,55,16.40
2012,09,27,14,56,16.50
2012,09,27,14,57,16.50
2012,09,27,14,58,16.60
2012,09,27,14,59,16.60
2012,09,27,15,00,16.60
2012,09,27,15,01,16.60
2012,09,27,15,02,16.60
2012,09,27,15,03,16.70
2012,09,27,15,04,16.70
2012,09,27,15,05,16.70
2012,09,27,15,06,16.70
2012,09,27,15,07,16.70
2012,09,27,15,08,16.60
2012,09,27,15,09,16.50
2012,09,27,15,10,16.40
2012,09,27,15,11,16.40
2012,09,27,15,12,16.40
2012,09,27,15,13,16.40
2012,09,27,15,14,16.40
2012,09,27,15,15,16.40
2012,09,27,15,16,16.40
2012,09,27,15,17,16.40
2012,09,27,15,18,16.40
2012,09,27,15,19,16.40
2012,09,27,15,20,16.30
2012,09,27,15,21,16.40
2012,09,27,15,22,16.50
2012,09,27,15,23,16.60
2012,09,27,15,24,16.60
2012,09,27,15,25,16.60
2012,09,27,15,26,16.60
2012,09,27,15,27,16.60
2012,09,27,15,28,16.60
2012,09,27,15,29,16.60
2012,09,27,15,30,16.70
2012,09,27,15,31,16.80
2012,09,27,15,32,16.80
2012,09,27,15,33,16.90
2012,09,27,15,34,17.00
2012,09,27,15,35,17.00
2012,09,27,15,36,17.00
2012,09,27,15,37,17.10
2012,09,27,15,38,17.10
2012,09,27,15,39,17.20
2012,09,27,15,40,17.30
2012,09,27,15,41,17.40
2012,09,27,15,42,17.40
2012,09,27,15,43,17.40
2012,09,27,15,44,17.50
2012,09,27,15,45,17.50
2012,09,27,15,46,17.60
2012,09,27,15,47,17.70
2012,09,27,15,48,17.90
2012,09,27,15,49,17.90
2012,09,27,15,50,18.10
2012,09,27,15,51,18.20
2012,09,27,15,52,18.20
2012,09,27,15,53,18.20
2012,09,27,15,54,18.10
2012,09,27,15,55,18.00
2012,09,27,15,56,17.90
2012,09,27,15,57,17.80
2012,09,27,15,58,17.80
2012,09,27,15,59,17.70
2012,09,27,16,00,17.70
2012,09,27,16,01,17.70
2012,09,27,16,02,17.70
2012,09,27,16,03,17.60
2012,09,27,16,04,17.60
2012,09,27,16,05,17.60
2012,09,27,16,06,17.60
2012,09,27,16,07,17.70
2012,09,27,16,08,17.60
2012,09,27,16,09,17.60
2012,09,27,16,10,17.60
2012,09,27,16,11,17.70
2012,09,27,16,12,17.70
2012,09,27,16,13,17.70
2012,09,27,16,14,17.80
2012,09,27,16,15,17.90
2012,09,27,16,16,17.90
2012,09,27,16,17,17.90
2012,09,27,16,18,17.90
2012,09,27,16,19,17.90
2012,09,27,16,20,18.00
2012,09,27,16,21,18.10
2012,09,27,16,22,18.10
2012,09,27,16,23,18.20
2012,09,27,16,24,18.20
2012,09,27,16,25,18.20
2012,09,27,16,26,18.20
2012,09,27,16,27,18.30
2012,09,27,16,28,18.30
2012,09,27,16,29,18.20
2012,09,27,16,30,18.20
2012,09,27,16,31,18.20
2012,09,27,16,32,18.20
2012,09,27,16,33,18.20
2012,09,27,16,34,18.20
2012,09,27,16,35,18.20
2012,09,27,16,36,18.10
2012,09,27,16,37,18.10
2012,09,27,16,38,18.10
2012,09,27,16,39,18.00
2012,09,27,16,40,17.90
2012,09,27,16,41,18.00
2012,09,27,16,42,17.90
2012,09,27,16,43,17.90
2012,09,27,16,44,17.90
2012,09,27,16,45,17.80
2012,09,27,16,46,17.80
2012,09,27,16,47,17.70
2012,09,27,16,48,17.70
2012,09,27,16,49,17.70
2012,09,27,16,50,17.70
2012,09,27,16,51,17.80
2012,09,27,16,52,17.80
2012,09,27,16,53,17.90
2012,09,27,16,54,17.90
2012,09,27,16,55,18.00
2012,09,27,16,56,18.10
2012,09,27,16,57,18.10
2012,09,27,16,58,18.10
2012,09,27,16,59,18.10
2012,09,27,17,00,18.10
2012,09,27,17,01,18.10
2012,09,27,17,02,18.20
2012,09,27,17,03,18.20
2012,09,27,17,04,18.20
2012,09,27,17,05,18.20
2012,09,27,17,06,18.20
2012,09,27,17,07,18.20
2012,09,27,17,08,18.20
2012,09,27,17,09,18.30
2012,09,27,17,10,18.30
2012,09,27,17,11,18.30
2012,09,27,17,12,18.30
2012,09,27,17,13,18.40
2012,09,27,17,14,18.50
2012,09,27,17,15,18.50
2012,09,27,17,16,18.50
2012,09,27,17,17,18.50
2012,09,27,17,18,18.50
2012,09,27,17,19,18.50
2012,09,27,17,20,18.50
2012,09,27,17,21,18.50
2012,09,27,17,22,18.50
2012,09,27,17,23,18.40
2012,09,27,17,24,18.40
2012,09,27,17,25,18.40
2012,09,27,17,26,18.40
2012,09,27,17,27,18.30
2012,09,27,17,28,18.30
2012,09,27,17,29,18.20
2012,09,27,17,30,18.20
2012,09,27,17,31,18.20
2012,09,27,17,32,18.20
2012,09,27,17,33,18.10
2012,09,27,17,34,18.10
2012,09,27,17,35,18.10
2012,09,27,17,36,17.90
2012,09,27,17,37,17.90
2012,09,27,17,38,17.90
2012,09,27,17,39,17.90
2012,09,27,17,40,17.90
2012,09,27,17,41,17.80
2012,09,27,17,42,17.70